SCP
-0 -0 0 0 0 0 0 0 -0 0 0 0 0 0 0 0 0 0 0 0 0 0 0 0 0 0 0 0 0 0 0 0 0 0 0 0 0 0 0 0 0 0 0 -0 -0 -0 -0 -0 0
0 0 0 0 0 0 0 0 0 0 0 0 0 0 0 0 0 0 0 0 0 0 0 0 0 0 0 0 0 0 -0 0 0 0 0 0 0 0 0 0 0 0 0 0 0 0 0 0 0
0 -0 0 0 0 0 0 0 0 0 0 0 0 0 0 0 0 0 0 0 0 0 0 0 0 0 -0 -0 -0 0 0 0 0 0 0 0 0 0 0 0 0 0 0 0 0 0 0 0 0
0 0 0 0 0 -0 0 0 0 0 0 0 0 0 0 0 0 0 0 0 0 0 0 0 -0 -0 -0 -0 -0 0 0 0 0 0 0 0 0 0 0 0 0 0 0 0 0 0 0 0 0
0 0 0 0 0 -0 0 0 0 0 0 0 0 0 0 0 0 0 0 0 0 0 -0 -0 -0 -0 -0 -0 0 0 0 0 0 0 0 0 0 0 0 0 0 0 0 0 0 0 0 0 0
0 0 0 0 0 0 0 0 0 0 0 0 0 0 0 0 0 0 0 0 0 0 0 -0 -0 -0 0 0 0 0 0 0 0 0 0 0 0 0 0 0 0 0 0 0 0 0 0 0 0
0 0 0 0 0 0 0 0 0 0 0 0 0 0 0 0 0 0 0 0 0 0 0 0 0 0 0 0 0 0 0 0 0 0 0 0 0 0 0 0 0 0 0 0 0 0 0 0 0
0 0 0 0 0 0 0 0 0 0 0 0 0 0 0 0 0 0 0 -0 0 0 0 0 0 0 0 0 0 0 0 0 0 0 0 0 0 0 0 0 0 0 0 0 0 0 0 0 0
0 0 0 0 0 0 0 0 0 0 0 0 0 0 0 0 0 0 0 -0 0 0 0 0 0 0 0 0 0 0 0 0 0 0 0 0 0 0 0 0 0 0 0 0 0 0 0 0 0
0 0 0 0 0 0 0 0 0 0 0 0 0 0 0 0 0 0 -0 -0 0 0 0 0 0 0 0 0 0 0 0 0 0 0 0 0 0 0 0 0 0 0 0 0 0 0 0 0 0
0 0 0 0 0 0 0 0 0 0 0 0 0 0 0 0 0 -0 -0 -0 0 0 0 0 0 0 0 0 0 0 0 0 0 0 0 0 0 0 0 0 0 0 0 0 0 0 0 0 0
0 0 0 0 0 0 0 0 0 0 0 0 0 0 0 0 0 0 0 0 0 0 0 0 0 0 0 0 0 0 0 0 0 0 0 0 0 0 0 0 0 0 0 0 0 0 0 0 0
0 0 0 0 0 0 0 0 0 0 0 0 0 0 0 0 0 0 0 0 0 0 0 0 0 0 0 0 0 0 0 0 0 0 0 0 0 0 0 0 0 0 0 0 0 0 0 0 0
0 0 0 0 0 0 0 0 0 -0 0 0 0 0 0 0 0 0 0 0 0 0 0 0 0 0 0 0 0 0 0 0 0 0 0 0 0 0 0 0 0 0 0 0 0 0 0 0 0
0 0 0 0 0 0 0 0 0 0 0 0 0 0 0 0 0 0 0 0 0 0 0 0 0 0 0 0 0 0 0 0 0 0 0 0 0 0 0 0 0 0 0 0 0 0 0 0 0
0 0 0 0 0 0 0 0 0 0 0 0 0 0 0 0 0 0 0 0 0 0 0 0 0 0 0 0 0 0 0 0 0 0 0 0 0 0 0 0 0 0 0 0 0 0 0 0 0
0 0 0 0 0 0 0 0 0 0 0 0 0 0 0 0 0 0 0 0 0 0 0 0 0 0 0 0 0 0 0 0 0 0 0 0 0 0 0 0 0 0 0 0 0 0 0 0 0
0 0 0 0 0 0 0 0 -0 0 0 0 0 0 0 0 0 0 0 0 0 0 0 0 0 0 0 0 0 0 0 0 0 0 0 0 0 0 0 0 0 0 0 0 0 0 0 0 0
0 0 0 0 0 0 0 0 0 0 0 0 0 0 0 0 0 0 0 0 0 0 0 0 0 0 0 0 0 0 0 0 0 0 0 0 0 0 0 0 0 0 0 0 0 0 0 0 0
0 0 0 0 0 0 0 0 0 0 0 0 0 0 0 0 0 0 0 0 0 0 0 0 0 0 0 0 0 0 0 0 0 0 0 0 0 0 0 0 0 0 0 0 0 0 0 0 0
0 0 0 0 0 0 0 -0 0 0 0 0 0 0 0 0 0 0 0 0 0 0 0 0 0 0 0 0 0 0 0 0 0 0 0 0 0 0 0 0 0 0 0 0 0 0 0 0 0
0 0 0 0 0 0 0 0 0 0 0 0 0 0 0 0 0 0 0 0 0 0 0 0 0 0 0 0 0 0 0 0 0 0 0 0 0 0 0 0 0 0 0 0 0 0 0 0 0
0 0 0 0 0 0 0 0 0 0 0 0 0 0 0 0 0 0 0 0 0 0 0 0 0 0 0 0 0 0 0 0 0 0 0 0 0 0 0 0 0 0 0 0 0 0 0 0 0
0 0 0 0 0 0 0 0 0 0 0 0 0 0 0 0 0 0 0 0 0 0 0 0 0 0 0 0 0 0 0 0 0 0 0 0 0 0 0 0 0 0 0 0 0 0 0 0 0
0 0 0 0 0 0 0 0 0 0 0 0 0 0 0 0 0 0 0 0 0 0 0 0 0 0 0 0 0 0 0 0 0 0 0 0 0 0 0 0 0 0 0 0 0 0 0 0 0
0 0 0 0 0 0 0 0 0 0 0 0 0 0 0 0 0 0 0 0 0 0 0 0 0 0 0 0 0 0 0 0 0 0 0 0 0 0 0 0 0 0 0 0 0 0 0 0 0
0 0 0 0 0 0 0 0 0 0 0 0 0 0 0 0 0 0 0 0 0 0 0 0 0 0 0 0 0 0 0 0 0 0 0 0 0 0 0 0 0 0 0 0 0 0 0 0 0
0 0 0 0 0 0 0 0 0 0 0 0 0 0 0 0 0 0 0 0 0 0 0 0 0 0 0 0 0 0 0 0 0 0 0 0 0 0 0 0 0 0 0 0 0 0 0 0 0
0 0 0 0 0 0 0 0 0 0 0 0 0 0 0 0 0 0 0 0 0 0 0 0 0 0 0 0 0 0 0 0 0 0 0 0 0 0 0 0 0 0 0 0 0 0 0 0 0
0 0 0 0 0 0 0 0 0 0 0 0 0 0 0 0 0 0 0 0 0 0 0 0 0 0 0 0 0 0 0 0 0 0 0 0 0 0 0 0 0 0 0 0 0 0 0 0 0
Wind_Speed_500mb
26 22 23 13 5 8 16 11 10 11 4 8 8 9 15 26 9 5 28 26 22 17 15 12 12 11 7 4 6 5 7 9 11 13 15 17 19 20 20 18 16 16 14 16 16 14 13 15 16
25 22 11 12 7 12 16 12 14 13 19 19 9 1 3 10 12 24 22 22 20 17 16 14 13 12 14 13 12 11 13 13 13 16 19 19 19 20 22 21 21 21 20 18 18 18 17 18 16
25 15 10 7 10 17 11 11 15 28 27 18 9 8 6 12 19 30 23 21 17 16 14 12 11 11 12 13 13 15 17 19 17 19 19 22 19 20 29 29 27 25 25 27 26 24 23 23 25
15 8 15 10 24 23 21 12 29 20 17 11 7 13 11 20 22 21 28 23 18 13 11 12 17 19 20 19 18 17 18 19 20 24 25 24 22 24 27 29 28 31 32 32 32 32 32 32 32
10 13 11 17 28 31 7 3 27 18 21 20 13 15 11 23 21 20 22 20 14 13 14 13 19 20 21 20 20 19 20 20 21 22 23 24 26 29 31 31 33 31 32 34 37 38 41 41 40
12 13 12 20 31 32 15 14 14 20 27 18 11 14 13 15 21 23 20 19 16 11 8 3 3 4 3 5 9 13 16 18 20 23 25 26 29 31 32 34 35 37 40 42 44 46 45 45 46
10 13 19 26 29 18 11 21 13 21 20 20 5 6 16 20 25 22 20 16 13 10 7 2 6 9 13 13 12 10 9 9 9 11 13 14 15 18 19 22 26 30 34 38 40 42 45 47 47
23 9 19 25 26 27 26 26 9 26 8 21 18 5 13 28 32 25 21 16 13 10 6 5 5 8 9 10 10 11 11 13 14 15 16 18 18 19 22 24 26 28 30 31 32 36 41 46 50
13 9 14 27 24 14 29 15 13 8 9 9 13 4 10 28 24 28 24 20 17 13 10 6 5 5 6 8 9 8 12 14 16 18 19 21 22 23 23 24 24 25 26 29 32 34 36 39 42
14 8 15 12 13 11 19 18 28 6 15 15 19 19 22 31 26 30 29 24 21 15 13 10 5 1 2 3 8 11 13 15 16 16 19 20 22 24 26 28 29 30 32 31 34 37 37 38 42
12 9 14 12 14 15 9 19 11 14 14 32 38 39 35 35 32 31 27 21 20 17 16 11 8 8 5 2 6 10 14 18 21 24 25 27 28 29 30 32 33 36 37 38 39 40 41 43 46
8 6 5 6 5 7 4 3 10 26 12 14 26 30 44 41 41 38 34 33 28 30 24 18 14 10 6 4 8 12 16 18 21 25 28 29 30 32 34 36 38 41 43 45 46 48 49 50 50
13 2 3 2 2 4 9 16 15 31 44 37 25 26 39 40 43 38 37 36 38 36 26 23 17 14 7 3 6 10 15 21 25 28 30 32 34 36 38 40 42 44 47 50 54 56 58 58 57
16 8 1 6 7 6 5 13 14 20 36 48 39 39 40 42 44 41 42 42 42 36 33 25 21 15 8 6 5 11 18 23 27 30 31 32 35 38 40 43 45 48 50 52 57 61 64 67 67
2 7 11 19 13 3 4 15 26 62 25 26 50 45 42 47 44 48 46 47 46 42 33 30 24 19 16 8 6 14 21 26 28 30 31 34 36 40 44 47 48 50 53 56 58 60 63 66 67
6 4 6 7 16 8 6 15 8 24 52 34 37 48 45 50 52 49 46 47 46 40 39 35 30 26 18 9 9 15 21 26 26 27 30 33 37 42 45 49 52 54 56 57 59 62 65 67 69
9 8 13 6 12 5 14 13 1 4 34 35 35 45 48 50 53 54 54 50 46 46 43 39 36 31 21 14 14 18 22 25 25 30 32 34 39 42 47 51 54 56 57 58 62 63 64 69 72
7 9 9 10 8 7 11 35 33 35 21 36 38 45 53 58 62 59 59 58 51 51 50 43 40 34 26 19 18 20 25 29 30 32 34 37 38 43 47 51 53 56 58 59 60 63 64 65 70
6 10 14 6 6 3 17 32 36 34 37 41 51 48 54 60 56 57 59 60 60 59 54 51 47 39 32 24 23 22 27 29 30 33 33 34 43 47 50 51 52 54 56 59 61 63 64 65 64
5 11 14 6 8 4 15 30 37 30 40 53 51 61 62 53 56 59 63 64 68 67 62 57 51 43 37 29 25 24 29 31 31 32 36 43 45 48 49 50 52 53 56 58 59 62 66 62 56
8 11 6 3 7 14 14 18 14 10 35 52 62 62 58 62 58 62 68 70 69 70 69 61 53 49 42 33 28 28 29 33 34 34 37 41 44 47 48 51 53 54 55 57 56 58 63 69 66
6 9 5 6 7 8 4 11 11 10 14 14 29 40 47 54 45 61 68 71 72 69 64 60 55 53 48 38 32 29 30 35 36 38 41 42 43 43 45 47 50 51 52 51 52 54 56 60 69
3 6 4 1 5 8 7 5 14 4 11 18 18 31 31 34 49 49 52 68 67 64 61 58 58 57 50 41 34 31 32 37 41 40 42 43 42 42 43 45 47 48 49 49 51 54 59 63 69
9 3 2 1 2 3 12 12 9 8 8 8 7 13 31 29 29 35 53 47 61 56 56 62 63 59 51 43 36 34 34 40 44 40 43 43 41 41 41 43 44 44 45 49 53 56 62 68 74
4 5 2 5 2 11 5 3 14 23 7 10 13 17 19 26 32 36 43 56 52 57 59 65 65 61 53 44 40 39 37 43 43 41 42 41 41 40 40 41 40 41 43 48 55 63 70 77 85
13 7 8 11 7 4 4 12 12 9 9 16 27 20 24 23 24 29 33 52 50 56 58 61 63 59 55 47 44 42 41 43 43 41 41 39 39 39 39 37 37 39 44 50 57 68 79 86 87
12 9 1 7 4 5 10 15 18 8 10 8 8 17 26 29 31 30 31 37 46 49 49 52 58 59 56 50 49 47 44 45 41 39 38 36 36 36 36 36 36 39 44 56 65 75 85 91 86
3 6 6 3 5 9 10 10 12 3 10 16 17 26 33 31 32 32 32 31 31 34 41 48 52 54 54 54 53 49 46 45 40 37 34 33 32 32 32 31 34 41 52 62 70 80 90 89 82
6 5 3 1 6 10 5 11 13 5 14 15 18 41 42 41 38 36 37 33 24 31 39 46 51 54 57 57 53 49 47 43 38 35 32 30 29 29 28 29 35 47 58 66 73 80 90 88 86
3 7 12 7 10 7 3 13 11 14 13 14 18 22 36 38 38 34 38 31 22 33 40 45 50 53 54 53 52 50 47 41 35 32 30 28 27 27 24 29 38 49 59 67 74 82 88 90 89
Wind_Direction_500mb
328 327 344 313 245 216 258 197 50 119 131 51 28 13 70 47 21 143 160 157 156 166 197 183 211 244 251 273 253 253 263 276 289 292 295 295 297 303 306 305 311 313 317 319 322 308 293 289 257
326 334 336 270 248 255 236 158 159 158 99 126 115 308 164 79 72 135 143 157 163 178 202 200 215 236 245 255 260 270 276 278 289 299 302 299 297 306 307 303 299 300 297 297 302 307 301 284 262
315 333 294 233 228 249 282 90 167 98 127 160 118 56 62 106 116 152 182 169 171 200 211 212 234 249 257 260 261 269 275 277 283 288 295 289 288 306 309 309 309 304 297 287 286 289 292 287 270
322 250 252 240 261 265 264 138 111 123 158 192 150 129 123 122 164 188 177 171 192 212 230 250 263 265 262 262 265 272 275 276 281 290 298 287 283 284 291 294 296 300 303 301 291 279 279 281 281
295 267 253 252 249 261 69 92 136 157 169 181 194 155 123 172 191 172 165 177 198 230 267 273 273 266 259 259 263 270 276 282 287 293 293 291 288 289 292 287 287 285 283 286 291 294 291 280 274
254 241 242 243 249 248 128 104 153 197 176 113 182 145 118 208 184 181 175 187 203 229 255 262 334 18 338 285 277 278 283 287 289 291 290 290 291 291 290 287 285 284 283 282 280 281 281 281 281
248 259 246 263 270 272 134 147 197 226 170 162 236 173 148 196 192 193 182 195 200 200 191 162 98 84 78 72 66 58 43 22 4 350 340 336 333 323 319 315 309 299 293 286 283 284 282 283 280
250 243 258 255 257 277 148 143 196 226 192 142 163 214 169 197 208 190 187 195 201 193 182 147 91 67 69 72 57 44 28 17 6 357 346 340 338 338 334 330 320 315 311 309 305 296 289 285 285
224 254 237 246 246 241 122 149 186 248 122 170 195 140 130 193 197 191 189 191 202 186 180 165 132 92 62 47 40 27 16 6 357 350 345 340 341 337 334 331 327 327 325 320 315 311 304 297 291
220 229 246 11 357 35 133 195 155 181 206 199 198 217 183 199 202 197 198 195 200 201 189 186 163 92 59 38 10 5 4 356 346 346 341 337 335 334 333 334 332 332 331 329 323 318 313 306 302
220 243 352 50 16 3 150 208 175 187 234 209 205 212 212 208 205 197 198 194 204 207 217 207 211 225 225 345 349 359 353 355 350 346 340 337 333 330 329 329 329 330 328 326 321 316 313 311 307
277 274 340 17 355 356 347 10 223 220 230 170 199 206 222 217 209 201 198 186 196 201 216 217 222 226 230 300 351 352 351 349 349 341 336 334 330 330 329 329 332 332 329 327 323 320 318 314 308
240 174 314 331 326 301 316 255 246 248 241 250 243 208 217 223 209 209 200 195 206 212 210 222 223 226 229 295 322 345 351 347 342 337 335 333 330 330 330 330 331 330 327 325 324 322 320 316 311
348 5 267 231 209 248 267 262 227 252 241 232 236 234 211 226 210 208 201 201 208 214 212 218 222 223 232 245 324 345 347 345 339 335 333 330 329 328 328 328 328 328 326 324 323 321 320 318 316
244 276 208 214 208 212 235 271 235 239 233 218 221 228 219 215 214 210 209 206 213 214 210 217 221 218 220 236 313 340 345 341 335 330 329 327 328 327 328 327 328 327 325 323 321 321 318 315 313
236 252 252 88 145 162 156 259 257 247 215 228 221 219 225 213 216 212 212 220 214 215 214 218 218 218 218 246 301 325 332 335 329 327 324 324 328 327 326 327 327 326 324 322 322 321 317 314 311
229 271 202 223 211 118 197 270 255 118 206 219 228 223 223 221 217 214 213 216 217 214 217 216 216 218 223 247 288 312 319 325 326 327 322 324 326 327 327 328 327 324 323 324 323 320 316 313 310
219 226 251 241 188 229 237 261 276 268 232 234 236 230 223 219 220 218 216 216 212 215 217 217 217 217 227 251 280 299 309 322 327 320 319 324 325 326 327 326 324 324 324 323 320 317 314 313 314
322 315 303 112 141 260 233 258 265 259 244 220 221 226 228 223 222 221 222 218 214 216 217 217 216 219 233 248 270 294 304 312 311 316 318 320 328 329 327 324 325 324 322 322 321 318 317 315 313
245 279 274 82 152 192 282 273 266 248 234 231 222 216 221 222 216 214 214 216 217 217 216 216 221 223 236 248 268 287 298 310 309 312 324 328 325 325 324 324 325 325 324 325 324 321 318 317 321
221 230 304 312 285 216 296 274 239 247 235 239 235 232 226 220 216 209 209 214 220 219 215 218 221 227 239 246 260 275 295 311 312 314 316 319 322 321 325 327 326 328 327 327 324 323 320 320 321
244 8 16 341 340 264 165 287 289 236 211 213 225 225 220 213 215 218 211 211 217 219 219 219 221 228 236 246 255 271 298 309 309 309 314 318 319 321 325 325 327 327 326 325 324 324 320 315 314
150 16 66 341 276 4 211 243 268 223 239 217 205 215 214 217 214 204 208 213 214 218 219 218 220 229 235 243 252 270 291 306 310 306 310 316 318 322 325 326 327 327 326 327 327 327 324 318 310
137 172 186 272 257 301 218 184 268 206 253 103 110 191 182 186 198 206 199 206 214 221 217 216 222 228 233 241 251 264 286 303 306 304 308 314 318 322 326 328 327 327 326 329 328 326 324 321 314
201 135 307 337 360 233 4 290 262 292 306 162 162 165 171 193 194 192 196 194 204 211 214 218 223 227 233 239 250 264 284 299 302 301 308 313 317 322 326 328 328 326 329 332 331 331 327 324 317
184 192 177 215 208 284 78 234 251 181 40 151 138 149 168 179 184 181 185 186 198 205 216 223 226 228 235 241 251 263 279 292 296 297 304 310 315 320 325 327 327 329 335 339 335 330 329 324 318
169 196 233 102 49 43 222 263 304 241 148 147 178 195 177 183 186 186 184 185 192 208 225 230 231 231 236 243 252 262 276 288 289 294 302 308 313 318 325 325 326 336 341 337 334 332 330 325 320
317 319 107 324 176 248 257 242 232 255 199 204 205 195 190 189 192 191 196 194 199 219 232 237 236 236 239 245 251 260 273 283 283 290 297 304 309 315 321 322 331 339 342 339 336 333 330 326 313
162 232 231 4 179 191 254 253 194 150 150 182 208 190 191 188 191 196 202 199 210 236 241 244 241 241 241 246 251 259 272 277 277 286 294 298 306 312 316 324 338 342 342 341 337 334 330 328 321
358 224 176 145 235 243 154 262 198 144 150 142 149 171 188 195 205 211 206 201 256 258 246 246 246 243 247 250 253 260 267 267 274 283 289 295 304 309 315 329 340 343 343 342 337 334 335 335 330
Wind_Speed_850mb
26 22 23 13 5 8 16 11 10 11 4 8 8 9 15 26 9 5 28 26 22 17 15 12 12 11 7 4 6 5 7 9 11 13 15 17 19 20 20 18 16 16 14 16 16 14 13 15 16
25 22 11 12 7 12 16 12 14 13 19 19 9 1 3 10 12 24 22 22 20 17 16 14 13 12 14 13 12 11 13 13 13 16 19 19 19 20 22 21 21 21 20 18 18 18 17 18 16
25 15 10 7 10 17 11 11 15 28 27 18 9 8 6 12 19 30 23 21 17 16 14 12 11 11 12 13 13 15 17 19 17 19 19 22 19 20 29 29 27 25 25 27 26 24 23 23 25
15 8 15 10 24 23 21 12 29 20 17 11 7 13 11 20 22 21 28 23 18 13 11 12 17 19 20 19 18 17 18 19 20 24 25 24 22 24 27 29 28 31 32 32 32 32 32 32 32
10 13 11 17 28 31 7 3 27 18 21 20 13 15 11 23 21 20 22 20 14 13 14 13 19 20 21 20 20 19 20 20 21 22 23 24 26 29 31 31 33 31 32 34 37 38 41 41 40
12 13 12 20 31 32 15 14 14 20 27 18 11 14 13 15 21 23 20 19 16 11 8 3 3 4 3 5 9 13 16 18 20 23 25 26 29 31 32 34 35 37 40 42 44 46 45 45 46
10 13 19 26 29 18 11 21 13 21 20 20 5 6 16 20 25 22 20 16 13 10 7 2 6 9 13 13 12 10 9 9 9 11 13 14 15 18 19 22 26 30 34 38 40 42 45 47 47
23 9 19 25 26 27 26 26 9 26 8 21 18 5 13 28 32 25 21 16 13 10 6 5 5 8 9 10 10 11 11 13 14 15 16 18 18 19 22 24 26 28 30 31 32 36 41 46 50
13 9 14 27 24 14 29 15 13 8 9 9 13 4 10 28 24 28 24 20 17 13 10 6 5 5 6 8 9 8 12 14 16 18 19 21 22 23 23 24 24 25 26 29 32 34 36 39 42
14 8 15 12 13 11 19 18 28 6 15 15 19 19 22 31 26 30 29 24 21 15 13 10 5 1 2 3 8 11 13 15 16 16 19 20 22 24 26 28 29 30 32 31 34 37 37 38 42
12 9 14 12 14 15 9 19 11 14 14 32 38 39 35 35 32 31 27 21 20 17 16 11 8 8 5 2 6 10 14 18 21 24 25 27 28 29 30 32 33 36 37 38 39 40 41 43 46
8 6 5 6 5 7 4 3 10 26 12 14 26 30 44 41 41 38 34 33 28 30 24 18 14 10 6 4 8 12 16 18 21 25 28 29 30 32 34 36 38 41 43 45 46 48 49 50 50
13 2 3 2 2 4 9 16 15 31 44 37 25 26 39 40 43 38 37 36 38 36 26 23 17 14 7 3 6 10 15 21 25 28 30 32 34 36 38 40 42 44 47 50 54 56 58 58 57
16 8 1 6 7 6 5 13 14 20 36 48 39 39 40 42 44 41 42 42 42 36 33 25 21 15 8 6 5 11 18 23 27 30 31 32 35 38 40 43 45 48 50 52 57 61 64 67 67
2 7 11 19 13 3 4 15 26 62 25 26 50 45 42 47 44 48 46 47 46 42 33 30 24 19 16 8 6 14 21 26 28 30 31 34 36 40 44 47 48 50 53 56 58 60 63 66 67
6 4 6 7 16 8 6 15 8 24 52 34 37 48 45 50 52 49 46 47 46 40 39 35 30 26 18 9 9 15 21 26 26 27 30 33 37 42 45 49 52 54 56 57 59 62 65 67 69
9 8 13 6 12 5 14 13 1 4 34 35 35 45 48 50 53 54 54 50 46 46 43 39 36 31 21 14 14 18 22 25 25 30 32 34 39 42 47 51 54 56 57 58 62 63 64 69 72
7 9 9 10 8 7 11 35 33 35 21 36 38 45 53 58 62 59 59 58 51 51 50 43 40 34 26 19 18 20 25 29 30 32 34 37 38 43 47 51 53 56 58 59 60 63 64 65 70
6 10 14 6 6 3 17 32 36 34 37 41 51 48 54 60 56 57 59 60 60 59 54 51 47 39 32 24 23 22 27 29 30 33 33 34 43 47 50 51 52 54 56 59 61 63 64 65 64
5 11 14 6 8 4 15 30 37 30 40 53 51 61 62 53 56 59 63 64 68 67 62 57 51 43 37 29 25 24 29 31 31 32 36 43 45 48 49 50 52 53 56 58 59 62 66 62 56
8 11 6 3 7 14 14 18 14 10 35 52 62 62 58 62 58 62 68 70 69 70 69 61 53 49 42 33 28 28 29 33 34 34 37 41 44 47 48 51 53 54 55 57 56 58 63 69 66
6 9 5 6 7 8 4 11 11 10 14 14 29 40 47 54 45 61 68 71 72 69 64 60 55 53 48 38 32 29 30 35 36 38 41 42 43 43 45 47 50 51 52 51 52 54 56 60 69
3 6 4 1 5 8 7 5 14 4 11 18 18 31 31 34 49 49 52 68 67 64 61 58 58 57 50 41 34 31 32 37 41 40 42 43 42 42 43 45 47 48 49 49 51 54 59 63 69
9 3 2 1 2 3 12 12 9 8 8 8 7 13 31 29 29 35 53 47 61 56 56 62 63 59 51 43 36 34 34 40 44 40 43 43 41 41 41 43 44 44 45 49 53 56 62 68 74
4 5 2 5 2 11 5 3 14 23 7 10 13 17 19 26 32 36 43 56 52 57 59 65 65 61 53 44 40 39 37 43 43 41 42 41 41 40 40 41 40 41 43 48 55 63 70 77 85
13 7 8 11 7 4 4 12 12 9 9 16 27 20 24 23 24 29 33 52 50 56 58 61 63 59 55 47 44 42 41 43 43 41 41 39 39 39 39 37 37 39 44 50 57 68 79 86 87
12 9 1 7 4 5 10 15 18 8 10 8 8 17 26 29 31 30 31 37 46 49 49 52 58 59 56 50 49 47 44 45 41 39 38 36 36 36 36 36 36 39 44 56 65 75 85 91 86
3 6 6 3 5 9 10 10 12 3 10 16 17 26 33 31 32 32 32 31 31 34 41 48 52 54 54 54 53 49 46 45 40 37 34 33 32 32 32 31 34 41 52 62 70 80 90 89 82
6 5 3 1 6 10 5 11 13 5 14 15 18 41 42 41 38 36 37 33 24 31 39 46 51 54 57 57 53 49 47 43 38 35 32 30 29 29 28 29 35 47 58 66 73 80 90 88 86
3 7 12 7 10 7 3 13 11 14 13 14 18 22 36 38 38 34 38 31 22 33 40 45 50 53 54 53 52 50 47 41 35 32 30 28 27 27 24 29 38 49 59 67 74 82 88 90 89
Wind_Direction_850mb
328 327 344 313 245 216 258 197 50 119 131 51 28 13 70 47 21 143 160 157 156 166 197 183 211 244 251 273 253 253 263 276 289 292 295 295 297 303 306 305 311 313 317 319 322 308 293 289 257
326 334 336 270 248 255 236 158 159 158 99 126 115 308 164 79 72 135 143 157 163 178 202 200 215 236 245 255 260 270 276 278 289 299 302 299 297 306 307 303 299 300 297 297 302 307 301 284 262
315 333 294 233 228 249 282 90 167 98 127 160 118 56 62 106 116 152 182 169 171 200 211 212 234 249 257 260 261 269 275 277 283 288 295 289 288 306 309 309 309 304 297 287 286 289 292 287 270
322 250 252 240 261 265 264 138 111 123 158 192 150 129 123 122 164 188 177 171 192 212 230 250 263 265 262 262 265 272 275 276 281 290 298 287 283 284 291 294 296 300 303 301 291 279 279 281 281
295 267 253 252 249 261 69 92 136 157 169 181 194 155 123 172 191 172 165 177 198 230 267 273 273 266 259 259 263 270 276 282 287 293 293 291 288 289 292 287 287 285 283 286 291 294 291 280 274
254 241 242 243 249 248 128 104 153 197 176 113 182 145 118 208 184 181 175 187 203 229 255 262 334 18 338 285 277 278 283 287 289 291 290 290 291 291 290 287 285 284 283 282 280 281 281 281 281
248 259 246 263 270 272 134 147 197 226 170 162 236 173 148 196 192 193 182 195 200 200 191 162 98 84 78 72 66 58 43 22 4 350 340 336 333 323 319 315 309 299 293 286 283 284 282 283 280
250 243 258 255 257 277 148 143 196 226 192 142 163 214 169 197 208 190 187 195 201 193 182 147 91 67 69 72 57 44 28 17 6 357 346 340 338 338 334 330 320 315 311 309 305 296 289 285 285
224 254 237 246 246 241 122 149 186 248 122 170 195 140 130 193 197 191 189 191 202 186 180 165 132 92 62 47 40 27 16 6 357 350 345 340 341 337 334 331 327 327 325 320 315 311 304 297 291
220 229 246 11 357 35 133 195 155 181 206 199 198 217 183 199 202 197 198 195 200 201 189 186 163 92 59 38 10 5 4 356 346 346 341 337 335 334 333 334 332 332 331 329 323 318 313 306 302
220 243 352 50 16 3 150 208 175 187 234 209 205 212 212 208 205 197 198 194 204 207 217 207 211 225 225 345 349 359 353 355 350 346 340 337 333 330 329 329 329 330 328 326 321 316 313 311 307
277 274 340 17 355 356 347 10 223 220 230 170 199 206 222 217 209 201 198 186 196 201 216 217 222 226 230 300 351 352 351 349 349 341 336 334 330 330 329 329 332 332 329 327 323 320 318 314 308
240 174 314 331 326 301 316 255 246 248 241 250 243 208 217 223 209 209 200 195 206 212 210 222 223 226 229 295 322 345 351 347 342 337 335 333 330 330 330 330 331 330 327 325 324 322 320 316 311
348 5 267 231 209 248 267 262 227 252 241 232 236 234 211 226 210 208 201 201 208 214 212 218 222 223 232 245 324 345 347 345 339 335 333 330 329 328 328 328 328 328 326 324 323 321 320 318 316
244 276 208 214 208 212 235 271 235 239 233 218 221 228 219 215 214 210 209 206 213 214 210 217 221 218 220 236 313 340 345 341 335 330 329 327 328 327 328 327 328 327 325 323 321 321 318 315 313
236 252 252 88 145 162 156 259 257 247 215 228 221 219 225 213 216 212 212 220 214 215 214 218 218 218 218 246 301 325 332 335 329 327 324 324 328 327 326 327 327 326 324 322 322 321 317 314 311
229 271 202 223 211 118 197 270 255 118 206 219 228 223 223 221 217 214 213 216 217 214 217 216 216 218 223 247 288 312 319 325 326 327 322 324 326 327 327 328 327 324 323 324 323 320 316 313 310
219 226 251 241 188 229 237 261 276 268 232 234 236 230 223 219 220 218 216 216 212 215 217 217 217 217 227 251 280 299 309 322 327 320 319 324 325 326 327 326 324 324 324 323 320 317 314 313 314
322 315 303 112 141 260 233 258 265 259 244 220 221 226 228 223 222 221 222 218 214 216 217 217 216 219 233 248 270 294 304 312 311 316 318 320 328 329 327 324 325 324 322 322 321 318 317 315 313
245 279 274 82 152 192 282 273 266 248 234 231 222 216 221 222 216 214 214 216 217 217 216 216 221 223 236 248 268 287 298 310 309 312 324 328 325 325 324 324 325 325 324 325 324 321 318 317 321
221 230 304 312 285 216 296 274 239 247 235 239 235 232 226 220 216 209 209 214 220 219 215 218 221 227 239 246 260 275 295 311 312 314 316 319 322 321 325 327 326 328 327 327 324 323 320 320 321
244 8 16 341 340 264 165 287 289 236 211 213 225 225 220 213 215 218 211 211 217 219 219 219 221 228 236 246 255 271 298 309 309 309 314 318 319 321 325 325 327 327 326 325 324 324 320 315 314
150 16 66 341 276 4 211 243 268 223 239 217 205 215 214 217 214 204 208 213 214 218 219 218 220 229 235 243 252 270 291 306 310 306 310 316 318 322 325 326 327 327 326 327 327 327 324 318 310
137 172 186 272 257 301 218 184 268 206 253 103 110 191 182 186 198 206 199 206 214 221 217 216 222 228 233 241 251 264 286 303 306 304 308 314 318 322 326 328 327 327 326 329 328 326 324 321 314
201 135 307 337 360 233 4 290 262 292 306 162 162 165 171 193 194 192 196 194 204 211 214 218 223 227 233 239 250 264 284 299 302 301 308 313 317 322 326 328 328 326 329 332 331 331 327 324 317
184 192 177 215 208 284 78 234 251 181 40 151 138 149 168 179 184 181 185 186 198 205 216 223 226 228 235 241 251 263 279 292 296 297 304 310 315 320 325 327 327 329 335 339 335 330 329 324 318
169 196 233 102 49 43 222 263 304 241 148 147 178 195 177 183 186 186 184 185 192 208 225 230 231 231 236 243 252 262 276 288 289 294 302 308 313 318 325 325 326 336 341 337 334 332 330 325 320
317 319 107 324 176 248 257 242 232 255 199 204 205 195 190 189 192 191 196 194 199 219 232 237 236 236 239 245 251 260 273 283 283 290 297 304 309 315 321 322 331 339 342 339 336 333 330 326 313
162 232 231 4 179 191 254 253 194 150 150 182 208 190 191 188 191 196 202 199 210 236 241 244 241 241 241 246 251 259 272 277 277 286 294 298 306 312 316 324 338 342 342 341 337 334 330 328 321
358 224 176 145 235 243 154 262 198 144 150 142 149 171 188 195 205 211 206 201 256 258 246 246 246 243 247 250 253 260 267 267 274 283 289 295 304 309 315 329 340 343 343 342 337 334 335 335 330